{"data":{"norad_id":58010,"intl_designator":"2023-153V","name":"STARLINK-30520","alt_names":[],"object_type":"PAYLOAD","status":"ACTIVE","operator":null,"country":"US","launch_date":"2023-10-05","launch_site_code":"AFETR","launch_vehicle":null,"mission":null,"orbit_class":"UNKNOWN","rcs_meters":null,"size_class":null,"mass_kg":null,"dimensions":null,"purposes":["comms"],"wikipedia_slug":null,"has_3d_model":false,"image_url":null,"decayed_at":null,"tle_current":{"epoch":"2026-05-25T04:00:03.998880Z","epoch_age_seconds":63805,"freshness":"FRESH","line1":"1 58010U 23153V   26145.16671295  .00003651  00000+0  14211-3 0  9999","line2":"2 58010  43.0021 355.0699 0001486 268.1684  80.7771 15.27585065  5859","mean_motion":15.27585065,"eccentricity":0.0001486,"inclination_deg":43.0021,"raan_deg":355.0699,"arg_perigee_deg":268.1684,"mean_anomaly_deg":80.7771,"bstar":0.00014211,"rev_number":585,"period_min":94.266436154245,"perigee_km":482.01435964929,"apogee_km":484.05349964958,"semimajor_km":6861.1709296494,"source":"CELESTRAK","updated_at":"2026-05-25T13:38:18.493214Z"}}}